{"data":{"norad_id":68158,"intl_designator":"2026-049S","name":"STARLINK-37069","alt_names":[],"object_type":"PAYLOAD","status":"ACTIVE","operator":null,"country":"US","launch_date":"2026-03-13","launch_site_code":"AFWTR","launch_vehicle":null,"mission":null,"orbit_class":"UNKNOWN","rcs_meters":null,"size_class":null,"mass_kg":null,"dimensions":null,"purposes":["comms"],"wikipedia_slug":null,"has_3d_model":false,"image_url":null,"decayed_at":null,"tle_current":{"epoch":"2026-05-25T00:50:39.444000Z","epoch_age_seconds":68090,"freshness":"FRESH","line1":"1 68158U 26049S   26145.03517875  .00009757  00000+0  30412-3 0  9993","line2":"2 68158  97.2838 166.6354 0001455  96.8017 263.3391 15.33448404 11346","mean_motion":15.33448404,"eccentricity":0.0001455,"inclination_deg":97.2838,"raan_deg":166.6354,"arg_perigee_deg":96.8017,"mean_anomaly_deg":263.3391,"bstar":0.00030412,"rev_number":1134,"period_min":93.905996200704,"perigee_km":464.53729259601,"apogee_km":466.52880057956,"semimajor_km":6843.6700465878,"source":"CELESTRAK","updated_at":"2026-05-25T13:38:21.849898Z"}}}